GW0902 Weather Reports


Display with metric or nautical units.
time (UTC)temp
F
wind
direction
speed
MPH
gust
MPH
rain 1hr
in
rain 24hr
in
rain mn
in
humidity
%
barometer
mb
20260507191529 71 327 0.0 2.0 0.00 0.00 0.00 44 1017.8
20260507190029 70 355 0.0 3.0 0.00 0.00 0.00 44 1018.0
20260507184533 70 32 0.0 5.0 0.00 0.00 0.00 44 1018.1
20260507183040 69 31 0.0 2.0 0.00 0.00 0.00 47 1018.3
20260507181530 69 21 0.0 3.0 0.00 0.00 0.00 48 1018.4
20260507180144 69 1 0.0 2.0 0.00 0.00 0.00 49 1018.5
20260507174606 69 325 0.0 2.0 0.00 0.00 0.00 51 1018.6
20260507173028 68 18 0.0 3.0 0.00 0.00 0.00 50 1018.9
20260507171533 68 3 0.0 3.0 0.00 0.00 0.00 52 1018.9
20260507170028 68 344 0.0 1.0 0.00 0.00 0.00 54 1019.0
20260507164531 68 353 0.0 2.0 0.00 0.00 0.00 55 1019.0
20260507163031 66 356 0.0 1.0 0.00 0.00 0.00 57 1019.1
20260507161533 64 289 0.0 6.0 0.00 0.00 0.00 57 1019.2
20260507160031 63 278 1.0 8.0 0.00 0.00 0.00 59 1019.5
20260507154532 64 284 0.0 4.0 0.00 0.00 0.00 62 1019.7
20260507153106 61 236 0.0 1.0 0.00 0.00 0.00 66 1019.8
20260507151530 58 190 0.0 3.0 0.00 0.00 0.00 69 1019.8
20260507144532 56 233 2.0 7.0 0.00 0.00 0.00 73 1019.6
20260507143032 55 234 3.0 8.0 0.00 0.00 0.00 73 1019.6
20260507141606 54 282 0.0 4.0 0.00 0.00 0.00 76 1019.5
20260507140030 53 312 0.0 2.0 0.00 0.00 0.00 78 1019.3
20260507134533 53 299 0.0 4.0 0.00 0.00 0.00 79 1019.1
20260507133106 52 312 0.0 4.0 0.00 0.00 0.00 79 1019.0
20260507131531 53 294 0.0 3.0 0.00 0.00 0.00 78 1019.0
20260507130029 53 305 0.0 4.0 0.00 0.00 0.00 78 1019.1
20260507124531 53 294 0.0 1.0 0.00 0.00 0.00 79 1019.2
20260507123029 53 317 0.0 1.0 0.00 0.00 0.00 79 1019.1
20260507121527 53 303 0.0 1.0 0.00 0.00 0.00 79 1018.9
20260507120029 53 294 0.0 2.0 0.00 0.00 0.00 79 1018.8
20260507114606 53 294 0.0 2.0 0.00 0.00 0.00 79 1018.7
20260507113031 54 299 0.0 4.0 0.00 0.00 0.00 79 1018.6
20260507111605 54 304 0.0 1.0 0.00 0.00 0.00 79 1018.5
20260507110032 54 301 0.0 3.0 0.00 0.00 0.00 78 1018.3
20260507104531 54 300 0.0 2.0 0.00 0.00 0.00 77 1018.2
20260507101531 56 320 0.0 1.0 0.00 0.00 0.00 75 1018.3
20260507100037 56 316 0.0 1.0 0.00 0.00 0.00 75 1018.3
20260507094530 56 313 0.0 0.0 0.00 0.00 0.00 75 1018.4
20260507093032 57 328 0.0 1.0 0.00 0.00 0.00 75 1018.4
20260507091529 57 5 0.0 2.0 0.00 0.00 0.00 75 1018.4
20260507090032 57 312 0.0 4.0 0.00 0.00 0.00 76 1018.4
20260507084605 57 273 0.0 1.0 0.00 0.00 0.00 75 1018.3
20260507083033 58 270 0.0 1.0 0.00 0.00 0.00 73 1018.2
20260507081532 58 236 0.0 2.0 0.00 0.00 0.00 74 1018.3
20260507080029 59 225 0.0 0.0 0.00 0.00 0.00 73 1018.4
20260507074646 59 351 0.0 2.0 0.00 0.00 0.00 73 1018.4
20260507073106 59 320 0.0 3.0 0.00 0.00 0.00 73 1018.3
20260507071532 59 292 0.0 4.0 0.00 0.00 0.00 73 1018.3
20260507064532 60 294 0.0 3.0 0.00 0.00 0.00 71 1018.4
20260507063030 60 278 0.0 4.0 0.00 0.00 0.00 71 1018.5
20260507061529 61 284 0.0 5.0 0.00 0.00 0.00 71 1018.5
20260507060031 61 282 0.0 5.0 0.00 0.00 0.00 70 1018.7
20260507054530 61 302 0.0 6.0 0.00 0.00 0.00 68 1018.8
20260507051529 62 300 0.0 4.0 0.00 0.00 0.00 64 1019.0
20260507044607 63 288 0.0 3.0 0.00 0.00 0.00 59 1018.9
20260507041528 65 267 1.0 5.0 0.00 0.00 0.00 53 1018.6
20260507040037 65 297 0.0 3.0 0.00 0.00 0.00 53 1018.5
20260507034531 66 342 0.0 3.0 0.00 0.00 0.00 51 1018.4
20260507033030 67 289 0.0 3.0 0.00 0.00 0.00 50 1018.2
20260507030104 68 270 1.0 10.0 0.00 0.00 0.00 49 1018.2
20260507024529 68 242 3.0 10.0 0.00 0.00 0.00 49 1018.0
20260507021532 68 280 1.0 6.0 0.00 0.00 0.00 49 1017.8
20260507020030 69 274 2.0 10.0 0.00 0.00 0.00 48 1017.7
20260507014529 69 282 2.0 12.0 0.00 0.00 0.00 47 1017.5
20260507013030 70 290 1.0 8.0 0.00 0.00 0.00 46 1017.5
20260507011607 70 285 2.0 11.0 0.00 0.00 0.00 45 1017.6
20260507004530 71 294 1.0 8.0 0.00 0.00 0.00 44 1017.5
20260507000029 72 284 1.0 7.0 0.00 0.00 0.00 41 1017.2
20260506234531 74 291 1.0 9.0 0.00 0.00 0.00 41 1017.0
20260506233029 76 290 2.0 7.0 0.00 0.00 0.00 41 1016.9
20260506230033 77 308 0.0 2.0 0.00 0.00 0.00 40 1017.0
20260506224530 76 282 2.0 8.0 0.00 0.00 0.00 40 1017.0
20260506223029 77 293 2.0 10.0 0.00 0.00 0.00 40 1017.2
20260506221530 77 308 1.0 13.0 0.00 0.00 0.00 41 1017.5
20260506220035 78 326 0.0 6.0 0.00 0.00 0.00 40 1017.6
20260506214605 78 343 0.0 1.0 0.00 0.00 0.00 42 1017.4
20260506213033 77 290 1.0 6.0 0.00 0.00 0.00 43 1017.4
20260506211529 76 289 3.0 14.0 0.00 0.00 0.00 44 1017.2
20260506210032 76 295 2.0 10.0 0.00 0.00 0.00 45 1017.2
20260506204528 76 294 2.0 7.0 0.00 0.00 0.00 46 1017.5
20260506203031 76 296 1.0 6.0 0.00 0.00 0.00 47 1017.7
20260506201537 75 290 2.0 13.0 0.00 0.00 0.00 48 1017.6
20260506194531 73 273 5.0 16.0 0.00 0.00 0.00 50 1017.4
20260506193030 73 266 5.0 16.0 0.00 0.00 0.00 50 1017.5